COSMOS 886 DEB, 15762

Orbit data source: Space-Track

COSMOS 886 DEB, 15762 is space debris in LEO originally from a launch on Mon, 27 Dec 1976 UTC launched from the Tyuratam Missile And Space Complex (TTMTR). Debris objects in space refer to the collection of defunct objects orbiting the Earth. Examples of debris include non-operational satellites, rocket bodies, and fragments generated from explosions, collisions, or faulty payload assembly.

Loading next visibility...
Identifier
15762, 1976-126BU
Orbit
LEO
Country
Flag of CISCIS
Related business
Manufacturer
Unknown
Mission
Spacecraft
Bus & Motor
Unknown
Mass
Unknown
Launch date (UTC)
1976-12-27 (49 years ago)
Launch vehicle
Unknown
Launch site
Tyuratam Missile And Space Complex (TTMTR)
Object type
Payload
Rocket body
Debris
Shape & HBR
Unknown shape, 0.1 m
Radar Cross Section
Medium (>0.1 m² and <1 m²)

Expand to show TLE details & history
Last TLE update: 1 day ago

TLE from 1 day ago
0 COSMOS 886 DEB
1 15762U 76126BU  26174.74042895  .00000037  00000-0  19621-3 0  9994
2 15762  65.6599 178.3665 0741607 159.1010 204.2077 12.59457117702969
Epoch: 2026-06-23T17:46Z
TLE epoch observation values (Epoch: 2026-06-23T17:46:13.061Z)
Latitude
-0.00001°
Longitude
-0.09558°
Altitude
1,961.477 km
Speed
6.674 km/s
True Right ascension
11h 53m 27s
True Declination
0° 00' 00"
Sunlit
Object was in daylight at epoch
Visualization orbit readout
Latitude
Unknown
Longitude
Unknown
Altitude
Unknown
Speed
Unknown
Apparent Right ascension
Unknown
Apparent Declination
Unknown
Sunlit
N/A
Visualization observer readout
Local Sidereal Time
04:46:06
Azimuth
Unknown
Elevation
Unknown
Doppler factor
Unknown
Orbital elements
Apogee altitude
2,002.392 km
Perigee altitude
845.199 km
Semi-major axis
7,801.933 km
Eccentricity
0.07416
Inclination
65.6599°
RAAN
178.3665°
Arg. of periapsis
159.101°
True anomaly
200.99712°
Mean anomaly
204.2077°
Eccentric anomaly
202.57641°
Mean motion
3.14949 °/min
Orbital period
114.3 mins
BSTAR
0.00019621
Loading maneuver chart data...
Computing Atmospheric mass density...
Loading historical data...
Loading historical data...
Loading historical data...
Loading historical data...
Loading historical data...
Loading historical data...
Loading historical data...

Documentation

Showing up to 5 results
|